RH
73 76 79 78 74 71 71 70 67 64 57 53 52 50 49 50 51 49 47 45 43 41 40 40 39 40 44 46 47 48 50 52 54 56 58 57 56 58 57 54 50 50 49 44 41 40 38 36 33 32 33 33 33 34 34 34 37 39 40 43 43 43 41
71 74 76 77 73 69 71 72 71 70 64 58 54 50 50 53 53 51 49 47 45 43 43 41 38 37 40 44 46 47 49 52 54 56 59 58 57 59 58 56 52 51 50 47 44 43 41 40 38 35 34 33 33 33 33 34 34 33 35 38 40 43 42
69 70 71 74 72 69 70 73 74 74 69 64 58 53 52 55 55 53 51 50 47 45 43 41 37 34 37 40 42 45 49 52 54 57 60 59 58 59 58 57 55 54 52 51 50 47 45 44 43 41 39 38 36 35 34 34 34 33 33 33 32 35 38
67 67 68 69 70 69 68 69 72 74 71 68 64 57 54 54 55 54 52 51 50 47 45 43 37 33 33 35 36 39 45 51 54 56 58 59 60 61 60 59 59 57 55 54 53 50 49 49 48 47 45 43 41 38 36 36 35 34 33 33 32 32 33
66 67 68 67 67 68 67 68 70 71 71 70 66 61 56 53 54 54 53 52 51 49 47 47 42 35 32 33 33 35 40 47 52 53 56 59 60 61 61 61 60 58 57 56 55 52 53 53 53 53 49 46 44 41 39 37 36 36 34 34 35 34 32
65 67 68 67 66 67 67 67 68 69 70 71 67 64 60 56 55 54 52 52 51 49 48 48 45 39 34 33 33 34 36 40 46 49 52 56 57 58 60 60 59 58 58 58 57 56 56 56 56 58 55 49 45 42 41 39 37 37 36 35 36 37 34
63 64 66 68 67 68 68 68 69 70 71 72 71 70 67 61 57 56 53 50 48 46 45 45 44 41 37 34 34 33 33 35 39 42 45 50 52 54 57 58 57 57 59 59 58 58 59 57 56 58 58 54 50 45 42 42 42 41 39 38 39 39 37
63 64 65 68 67 66 66 67 70 72 71 73 74 74 73 67 62 59 55 50 47 44 42 42 43 42 38 36 34 33 32 33 34 36 40 44 47 48 51 54 55 56 59 59 59 59 60 59 57 56 56 55 54 50 45 43 46 46 44 42 42 42 41
65 66 66 67 67 66 66 67 70 72 73 75 76 75 76 73 66 62 58 51 47 44 42 42 43 42 41 38 36 35 35 34 34 35 37 39 41 44 46 49 52 54 55 57 60 61 62 62 60 57 55 55 55 53 49 46 47 49 48 46 46 45 46
67 68 68 68 68 67 68 71 73 74 74 77 78 77 78 76 69 64 60 55 50 47 46 45 46 46 44 40 37 36 37 37 36 36 37 38 40 41 44 45 47 49 51 53 57 59 60 61 61 59 58 57 56 55 54 52 51 52 53 52 49 46 48
68 69 71 74 74 72 72 75 75 74 75 79 79 78 79 77 70 65 62 59 56 53 51 53 57 56 51 45 41 39 39 41 43 42 39 39 40 41 43 44 44 47 48 50 53 55 55 57 59 60 61 61 60 59 58 56 53 53 55 56 52 47 47
67 69 72 76 79 81 82 83 80 74 73 76 77 78 79 76 69 66 65 63 61 59 56 60 66 67 63 56 51 48 46 46 51 54 50 46 44 44 44 44 44 46 46 47 49 50 51 51 54 57 60 62 63 63 61 59 57 55 56 57 55 51 49
67 69 71 73 76 79 82 84 82 76 73 75 77 79 80 76 70 68 67 65 63 61 60 63 69 72 73 69 64 60 54 52 59 66 62 54 49 48 48 47 47 46 46 46 47 48 49 49 50 52 54 56 59 62 62 61 59 57 56 55 54 53 51
70 70 71 74 76 76 78 80 81 80 80 82 84 84 83 81 77 76 75 72 67 64 62 64 70 76 78 77 75 69 62 61 67 70 63 55 51 49 48 49 48 47 47 47 46 47 48 48 49 51 52 51 53 57 59 60 59 57 55 55 54 53 52
71 70 72 75 77 79 82 84 85 87 86 88 91 91 88 86 84 83 83 82 78 74 70 67 70 76 80 80 79 76 71 72 72 69 62 57 54 53 51 50 49 48 48 47 47 48 49 49 49 50 51 50 50 52 55 57 58 57 56 56 56 55 54
71 71 73 74 77 80 83 86 88 89 88 89 90 90 90 89 86 83 84 84 82 81 79 74 73 76 80 82 82 80 79 79 73 69 67 63 59 57 54 52 49 48 47 46 46 48 48 50 51 52 52 52 53 53 53 54 56 58 57 57 55 55 55
72 73 75 75 75 77 80 83 86 87 87 87 87 87 90 90 87 85 84 83 79 78 80 80 77 75 77 81 82 81 81 79 72 69 72 69 62 56 53 51 49 47 46 44 43 44 44 45 48 51 53 55 56 57 56 55 57 57 58 58 57 57 57
71 73 76 76 76 77 77 78 81 83 85 86 86 86 85 85 86 86 85 83 81 80 83 85 82 78 77 81 84 83 82 79 72 70 72 70 63 57 53 53 51 50 49 47 43 42 41 42 44 47 50 53 56 58 59 59 58 57 57 58 59 60 60
68 72 73 72 73 76 77 77 79 81 83 85 88 87 84 83 84 85 84 80 79 81 84 86 85 81 79 79 81 82 83 81 77 74 74 71 66 60 57 57 58 57 58 58 53 47 44 43 43 44 47 50 53 56 59 62 62 59 57 58 59 59 59
68 72 74 73 73 74 75 77 80 82 83 85 88 89 89 86 83 83 84 82 81 82 84 84 86 86 83 80 79 80 83 83 81 81 81 78 74 70 66 63 63 63 65 67 64 58 54 52 50 51 52 52 51 52 56 59 61 61 59 59 59 58 59
67 70 74 77 77 76 75 79 82 83 82 82 83 86 90 90 87 84 85 86 86 85 86 87 88 89 88 85 81 81 84 86 84 84 84 83 81 79 76 73 70 68 67 68 67 66 63 62 62 64 64 62 59 57 57 59 63 66 66 60 54 53 55
71 70 73 78 82 81 80 81 83 82 82 82 82 83 87 89 89 87 87 91 93 92 92 91 88 88 89 86 82 81 83 85 84 82 81 83 83 83 81 79 78 74 70 68 68 69 68 68 70 72 73 73 73 71 69 68 69 71 71 64 56 53 54
77 75 74 77 81 85 86 86 83 80 80 80 81 84 86 87 86 87 90 92 92 92 92 90 88 87 87 83 80 80 81 83 83 80 79 81 82 84 85 87 86 82 76 73 74 74 73 72 72 74 75 76 78 80 79 77 75 74 74 71 66 64 65
80 78 74 75 82 88 90 88 85 82 82 79 77 82 87 88 86 86 87 86 84 85 86 87 86 85 82 79 77 76 77 78 80 82 81 80 80 81 85 87 89 87 85 82 79 77 75 73 74 77 79 79 81 84 86 85 82 78 77 76 73 70 71
79 77 76 79 84 85 84 84 85 86 86 82 79 82 87 90 90 87 85 83 83 83 82 82 82 81 79 77 75 73 71 72 78 83 83 79 78 79 81 83 86 86 85 82 78 76 76 75 78 83 84 82 81 86 90 91 88 83 80 78 76 74 73
76 75 75 80 82 82 83 85 86 87 86 83 84 85 86 87 88 87 85 85 83 78 77 78 79 78 77 77 76 75 74 75 80 84 81 75 73 74 75 77 80 81 81 81 79 79 80 80 83 87 87 84 82 85 89 92 92 90 86 84 83 83 82
73 72 73 79 83 83 85 87 85 84 85 85 86 86 84 83 83 83 84 84 81 76 75 77 77 76 74 74 75 75 76 78 80 79 76 72 70 68 68 69 71 73 74 76 77 79 80 81 82 84 85 83 82 83 86 89 91 91 91 90 89 90 90
72 72 74 79 83 82 83 84 83 84 86 86 85 84 84 83 80 79 80 81 79 76 74 71 70 69 67 68 71 73 73 74 74 73 71 68 67 66 67 68 69 69 70 71 72 73 75 76 76 78 80 80 81 83 86 88 89 91 91 91 92 92 92
67 73 77 78 80 80 78 79 80 83 85 85 83 84 83 79 73 73 76 76 75 72 69 66 63 61 60 61 66 68 69 70 72 72 70 68 66 65 66 66 68 69 69 69 69 69 70 70 70 72 74 75 77 80 84 87 88 90 90 90 90 91 91
62 70 74 74 75 75 73 73 76 79 81 81 81 81 79 73 69 69 71 72 71 69 70 72 70 66 62 61 62 63 64 66 67 67 68 67 66 64 64 64 65 66 67 68 68 68 69 69 69 71 72 72 73 74 76 79 80 80 81 83 86 87 88
61 65 68 69 70 70 68 67 69 70 72 74 75 74 73 70 68 67 67 69 69 68 69 72 74 72 70 68 66 64 62 60 60 60 61 63 63 64 64 64 63 63 64 65 66 68 68 67 67 70 71 71 70 71 73 74 73 71 73 77 81 83 85
61 62 62 62 63 63 61 60 60 61 61 62 61 59 60 62 64 64 64 67 69 70 71 71 70 70 71 71 69 66 61 58 57 55 55 56 58 61 63 62 61 60 61 62 63 65 66 66 66 67 69 70 70 71 72 74 73 72 73 76 79 80 82
61 62 62 61 58 56 56 58 59 59 57 56 53 50 49 50 51 54 57 59 61 63 67 70 69 68 67 66 65 63 60 57 55 53 51 51 53 56 60 62 61 57 57 58 59 59 61 62 64 66 67 69 71 72 73 75 75 74 74 75 76 76 76
63 64 66 66 62 58 56 58 59 59 59 58 56 53 50 46 45 45 48 51 55 57 59 63 65 66 66 64 63 61 59 57 56 54 53 52 53 54 56 61 64 61 56 54 54 55 56 58 61 64 65 67 71 73 73 74 75 74 72 72 72 73 73
64 64 66 67 67 65 63 60 58 58 58 58 56 56 54 53 50 47 45 45 48 52 54 57 59 61 61 61 60 58 57 55 55 53 53 54 57 56 53 57 64 64 60 56 54 53 53 54 56 58 61 63 66 68 68 69 70 70 69 68 69 70 71
59 61 63 64 65 66 67 65 61 59 58 57 56 56 57 56 56 54 52 48 46 47 49 50 51 53 52 53 54 54 53 51 51 52 54 55 55 53 50 53 58 59 59 59 59 56 54 53 53 53 55 57 59 61 61 61 61 62 63 63 64 65 64
54 56 59 61 61 62 63 63 63 62 61 59 58 57 58 59 59 59 59 56 53 52 52 52 53 54 53 52 52 53 52 51 51 51 53 54 52 49 48 50 52 52 53 56 58 57 54 51 50 50 49 49 50 50 51 50 50 50 51 51 51 51 49
46 47 49 51 54 56 57 57 58 59 59 59 59 59 59 60 61 62 63 62 59 58 57 55 57 61 61 61 61 60 58 56 54 52 51 51 50 49 49 48 49 50 51 52 53 53 49 45 44 43 42 40 39 37 36 37 37 38 38 38 37 35 34